Tracking 27188 objects as of 2-Apr-2023
HD Live streaming from Space Station
objects crossing your sky now

STARLINK-2689

Track STARLINK-2689 now!
10-day predictions
STARLINK-2689 is classified as:


NORAD ID: 48463
Int'l Code: 2021-040AM
Perigee: 553.8 km
Apogee: 555.1 km
Inclination: 53.1 °
Period: 95.6 minutes
Semi major axis: 6925 km
RCS: Unknown
Launch date: May 9, 2021
Source: United States (US)
Launch site: AIR FORCE EASTERN TEST RANGE (AFETR)
Your satellite tracking list
Your tracking list is empty




NASA's NSSDC Master Catalog

Two Line Element Set (TLE):
1 48463U 21040AM  23091.62895878  .00037631  00000-0  25338-2 0  9993
2 48463  53.0545 328.7737 0000986 112.4201 247.6892 15.06370582104763
Source of the keplerian elements: AFSPC